Location: Elende
(51.4317°N, 10.6316°E)
Time: 09:57:32
(UTC+00:00)

NOSS 3-1 (C) - Pass Details

Date: 18 September 2020
Orbit: 743 x 1466 km, 63.4° (Epoch: 09 October)

Event Time Altitude Azimuth Distance (km) Brightness Sun altitude
Rises 23:20:38 0° 314° (NW) 3,824 7.1 -37.1°
Reaches altitude 10° 23:23:06 10° 316° (NW) 2,965 6.4 -37.1°
Enters shadow 23:28:49 61° 334° (NNW) 1,372 4.3 -37.0°
